Regional Weather Roundup
Issued by NWS

Home | Current Version | Previous Version | Text Only | Print | Product List | Glossary On
Versions: 1 2 3 4 5 6 7 8 9 10 11 12 13 14 15 16 17 18 19 20 21 22 23 24 25 26 27 28 29 30 31 32 33 34 35 36 37 38 39 40 41 42 43 44 45 46 47 48 49 50
000
ASUS44 KJAN 120303
RWRMS

MISSISSIPPI HOURLY WEATHER ROUNDUP
NATIONAL WEATHER SERVICE JACKSON MS
900 PM CST THU FEB 11 2016

NOTE: "FAIR: INDICATES FEW OR NO CLOUDS BELOW 12,000 FEET WITH NO
SIGNIFICANT WEATHER AND/OR OBSTRUCTIONS TO VISIBILITY.

MSZ001>002-007>008-010>013-018>021-025>028-034>036-120400-
NORTHWEST MISSISSIPPI

CITY           SKY/WX    TMP DP  RH WIND       PRES   REMARKS
CLEVELAND      FAIR      45  31  57 N12       30.18S
GREENWOOD      CLEAR     45  34  65 NE7       30.17R
GREENVILLE     CLOUDY    47  30  51 N10       30.17R
OLIVE BRANCH   CLEAR     39  27  60 NE8       30.20F WCI  34
OXFORD         FAIR      41  25  52 NE6       30.21S
TUNICA         PTCLDY    37  28  70 N6        30.21F WCI  33
$$

MSZ003>006-009-014>017-022>024-029>033-037>039-120400-
NORTHEAST MISSISSIPPI

CITY           SKY/WX    TMP DP  RH WIND       PRES   REMARKS
COLUMBUS AFB   CLEAR     47  31  55 NE7       30.17R
CORINTH        FAIR      41  23  48 NE6       30.21F
GOLDN TRIANGLE CLEAR     45  30  57 N9        30.16S
STARKVILLE     FAIR      45  34  65 N3        30.17S
TUPELO         PTCLDY    40  25  55 N8        30.21R WCI  34
$$

MSZ040-058-120400-
CENTRAL MISSISSIPPI

CITY           SKY/WX    TMP DP  RH WIND       PRES   REMARKS
JACKSON INTL   CLEAR     49  41  74 CALM      30.13R
JACKSON HAWKNS CLEAR     57  41  55 NW3       30.14R
MERIDIAN KEY   CLEAR     47  41  80 N3        30.15R
MERIDIAN NAS   CLEAR     52  40  63 N3        30.16R
VICKSBURG      CLEAR     55  43  63 CALM      30.14R
$$

MSZ059>079-120400-
SOUTH MISSISSIPPI

CITY           SKY/WX    TMP DP  RH WIND       PRES   REMARKS
BROOKHAVEN     FAIR      75  63  64 S7        30.15R
HATTIESBURG    CLEAR     63  49  60 SW6       30.15R
MCCOMB         CLEAR     63  52  67 SW8       30.15S
NATCHEZ        CLEAR     64  54  68 SW6       30.14R
PINE BELT      CLEAR     61  46  59 SW5       30.14S
$$

MSZ080>082-120400-
COASTAL MISSISSIPPI

CITY           SKY/WX    TMP DP  RH WIND       PRES   REMARKS
BILOXI         CLEAR     58  56  92 SW12      30.19R
PASCAGOULA     CLEAR     58  56  93 SW5       30.20R
GULFPORT       CLEAR     62  54  74 SW6       30.19R
$$



USA.gov is the U.S. government's official web portal to all federal, state and local government web resources and services.